When you browse on this site, cookies collect data to enhance your experience and personalize the content and advertising you see.
Visit our Privacy Policy to learn more. By continuing to use the site, you agree to this use of cookies and data.
  • In France
  • List of Countries
  • For 7 days
  • Water Temperature
  • Weather Map
  • Weather Widgets
  • user-avatar
    Login

    Hourly Weather Oksford

    Today, 20 August, Tuesday

    Time Temperature Precipitation Wind Pressure Humidity
    00:00 +11°C° 0 mm 3 mps 758 mmHg 91%
    01:00 +11°C° 0 mm 3 mps 758 mmHg 92%
    02:00 +11°C° 0 mm 3 mps 758 mmHg 93%
    03:00 +10°C° 0 mm 3 mps 758 mmHg 94%
    04:00 +10°C° 0 mm 3 mps 759 mmHg 94%
    05:00 +10°C° 0 mm 3 mps 759 mmHg 93%
    06:00 +12°C° 0 mm 2 mps 759 mmHg 92%
    07:00 +12°C° 0 mm 3 mps 760 mmHg 84%
    08:00 +14°C° 0 mm 3 mps 760 mmHg 77%
    09:00 +15°C° 0 mm 4 mps 761 mmHg 70%
    10:00 +17°C° 0 mm 4 mps 761 mmHg 65%
    11:00 +18°C° 0 mm 4 mps 761 mmHg 61%
    12:00 +19°C° 0 mm 5 mps 761 mmHg 57%
    13:00 +19°C° 0 mm 5 mps 762 mmHg 57%
    14:00 +19°C° 0 mm 5 mps 762 mmHg 57%
    15:00 +19°C° 0 mm 5 mps 762 mmHg 57%
    16:00 +19°C° 0 mm 4 mps 762 mmHg 61%
    17:00 +18°C° 0 mm 4 mps 762 mmHg 66%
    18:00 +17°C° 0 mm 3 mps 762 mmHg 70%
    19:00 +16°C° 0 mm 3 mps 763 mmHg 75%
    20:00 +14°C° 0 mm 3 mps 763 mmHg 81%
    21:00 +13°C° 0 mm 2 mps 763 mmHg 86%
    22:00 +13°C° 0 mm 2 mps 763 mmHg 88%
    23:00 +13°C° 0 mm 2 mps 763 mmHg 91%

    Tomorrow, 21 August, Wednesday

    Time Temperature Precipitation Wind Pressure Humidity
    00:00 +12°C° 0 mm 2 mps 763 mmHg 93%
    01:00 +12°C° 0 mm 2 mps 763 mmHg 93%
    02:00 +12°C° 0 mm 2 mps 764 mmHg 94%
    03:00 +12°C° 0 mm 2 mps 764 mmHg 94%
    04:00 +12°C° 0 mm 2 mps 764 mmHg 93%
    05:00 +13°C° 0 mm 2 mps 763 mmHg 92%
    06:00 +13°C° 0 mm 2 mps 763 mmHg 91%
    07:00 +13°C° 0 mm 3 mps 763 mmHg 85%
    08:00 +16°C° 0 mm 3 mps 764 mmHg 80%
    09:00 +17°C° 0 mm 3 mps 764 mmHg 74%
    10:00 +18°C° 0 mm 4 mps 764 mmHg 70%
    11:00 +19°C° 0 mm 4 mps 763 mmHg 65%
    12:00 +20°C° 0 mm 4 mps 763 mmHg 61%
    13:00 +20°C° 0 mm 4 mps 763 mmHg 61%
    14:00 +21°C° 0 mm 5 mps 763 mmHg 62%
    15:00 +21°C° 0 mm 5 mps 762 mmHg 62%
    16:00 +20°C° 0 mm 5 mps 762 mmHg 65%
    17:00 +19°C° 0 mm 4 mps 762 mmHg 68%
    18:00 +18°C° 0 mm 4 mps 762 mmHg 70%
    19:00 +17°C° 0 mm 3 mps 762 mmHg 74%
    20:00 +16°C° 0 mm 3 mps 762 mmHg 78%
    21:00 +13°C° 0 mm 3 mps 762 mmHg 82%
    22:00 +13°C° 0 mm 3 mps 762 mmHg 84%
    23:00 +13°C° 0 mm 3 mps 762 mmHg 85%

    Day after tomorrow, 22 August, Thursday

    Time Temperature Precipitation Wind Pressure Humidity
    00:00 +12°C° 0 mm 3 mps 762 mmHg 87%
    01:00 +12°C° 0 mm 3 mps 762 mmHg 89%
    02:00 +12°C° 0 mm 3 mps 761 mmHg 91%
    03:00 +11°C° 0 mm 3 mps 761 mmHg 93%
    04:00 +11°C° 0 mm 4 mps 761 mmHg 92%
    05:00 +12°C° 0 mm 4 mps 761 mmHg 91%
    06:00 +12°C° 0 mm 4 mps 761 mmHg 90%
    07:00 +14°C° 0 mm 4 mps 762 mmHg 85%
    08:00 +15°C° 0 mm 5 mps 762 mmHg 81%
    09:00 +17°C° 0 mm 5 mps 762 mmHg 76%
    10:00 +19°C° 0 mm 5 mps 762 mmHg 73%
    11:00 +20°C° 0 mm 5 mps 762 mmHg 71%
    12:00 +21°C° 0 mm 5 mps 762 mmHg 69%
    13:00 +21°C° 0.1 mm 5 mps 762 mmHg 66%
    14:00 +22°C° 0.1 mm 5 mps 762 mmHg 63%
    15:00 +22°C° 0.1 mm 5 mps 762 mmHg 60%
    16:00 +22°C° 0 mm 5 mps 762 mmHg 64%
    17:00 +21°C° 0 mm 4 mps 762 mmHg 68%
    18:00 +20°C° 0 mm 4 mps 762 mmHg 72%
    19:00 +19°C° 0 mm 3 mps 762 mmHg 78%
    20:00 +17°C° 0 mm 3 mps 763 mmHg 83%
    21:00 +16°C° 0 mm 3 mps 763 mmHg 88%
    22:00 +15°C° 0 mm 2 mps 763 mmHg 89%
    23:00 +15°C° 0 mm 2 mps 763 mmHg 91%

    23 August, Friday

    Time Temperature Precipitation Wind Pressure Humidity
    00:00 +15°C° 0 mm 2 mps 763 mmHg 92%
    01:00 +14°C° 0 mm 2 mps 763 mmHg 93%
    02:00 +14°C° 0 mm 2 mps 763 mmHg 94%
    03:00 +14°C° 0 mm 2 mps 762 mmHg 95%
    04:00 +14°C° 0 mm 2 mps 762 mmHg 94%
    05:00 +14°C° 0 mm 2 mps 763 mmHg 94%
    06:00 +15°C° 0 mm 1 mps 763 mmHg 93%
    07:00 +16°C° 0 mm 2 mps 763 mmHg 87%
    08:00 +18°C° 0 mm 2 mps 763 mmHg 81%
    09:00 +19°C° 0 mm 2 mps 763 mmHg 75%
    10:00 +20°C° 0 mm 2 mps 763 mmHg 70%
    11:00 +21°C° 0 mm 2 mps 763 mmHg 65%
    12:00 +24°C° 0 mm 1 mps 763 mmHg 60%
    13:00 +24°C° 0 mm 1 mps 762 mmHg 58%
    14:00 +25°C° 0 mm 1 mps 762 mmHg 56%
    15:00 +25°C° 0 mm 1 mps 762 mmHg 54%
    16:00 +25°C° 0 mm 1 mps 762 mmHg 58%
    17:00 +24°C° 0 mm 1 mps 761 mmHg 61%
    18:00 +24°C° 0 mm 1 mps 761 mmHg 65%
    19:00 +22°C° 0 mm 1 mps 761 mmHg 69%
    20:00 +21°C° 0 mm 1 mps 761 mmHg 74%
    21:00 +19°C° 0 mm 1 mps 761 mmHg 79%
    22:00 +19°C° 0 mm 1 mps 761 mmHg 81%
    23:00 +18°C° 0 mm 1 mps 761 mmHg 83%

    24 August, Saturday

    Time Temperature Precipitation Wind Pressure Humidity
    00:00 +18°C° 0 mm 1 mps 761 mmHg 85%
    01:00 +18°C° 0 mm 1 mps 760 mmHg 86%
    02:00 +16°C° 0 mm 1 mps 760 mmHg 87%
    03:00 +16°C° 0 mm 1 mps 760 mmHg 88%
    04:00 +16°C° 0 mm 1 mps 759 mmHg 87%
    05:00 +16°C° 0 mm 1 mps 759 mmHg 85%
    06:00 +16°C° 0 mm 1 mps 759 mmHg 84%
    07:00 +17°C° 0 mm 2 mps 759 mmHg 78%
    08:00 +19°C° 0 mm 2 mps 759 mmHg 72%
    09:00 +21°C° 0 mm 2 mps 759 mmHg 66%
    10:00 +23°C° 0 mm 2 mps 759 mmHg 62%
    11:00 +24°C° 0 mm 2 mps 758 mmHg 57%
    12:00 +26°C° 0 mm 2 mps 758 mmHg 53%
    13:00 +26°C° 0 mm 2 mps 758 mmHg 52%
    14:00 +27°C° 0 mm 2 mps 757 mmHg 50%
    15:00 +27°C° 0 mm 2 mps 757 mmHg 48%
    16:00 +27°C° 0 mm 2 mps 757 mmHg 52%
    17:00 +26°C° 0 mm 1 mps 756 mmHg 57%
    18:00 +25°C° 0 mm 1 mps 756 mmHg 61%
    19:00 +24°C° 0 mm 1 mps 756 mmHg 65%
    20:00 +22°C° 0 mm 1 mps 756 mmHg 68%
    21:00 +21°C° 0 mm 1 mps 756 mmHg 72%
    22:00 +21°C° 0 mm 1 mps 756 mmHg 73%
    23:00 +20°C° 0 mm 1 mps 756 mmHg 75%

    25 August, Sunday

    Time Temperature Precipitation Wind Pressure Humidity
    00:00 +20°C° 0 mm 1 mps 756 mmHg 77%
    01:00 +19°C° 0 mm 1 mps 755 mmHg 79%
    02:00 +19°C° 0 mm 1 mps 755 mmHg 81%
    03:00 +16°C° 0 mm 0 mps 755 mmHg 84%
    04:00 +16°C° 0 mm 0 mps 755 mmHg 83%
    05:00 +16°C° 0 mm 0 mps 755 mmHg 83%
    06:00 +16°C° 0 mm 0 mps 755 mmHg 82%
    07:00 +18°C° 0 mm 0 mps 755 mmHg 76%
    08:00 +22°C° 0 mm 1 mps 755 mmHg 70%
    09:00 +24°C° 0 mm 1 mps 755 mmHg 64%
    10:00 +25°C° 0 mm 2 mps 755 mmHg 60%
    11:00 +26°C° 0 mm 2 mps 755 mmHg 56%
    12:00 +27°C° 0 mm 3 mps 755 mmHg 52%
    13:00 +27°C° 0 mm 3 mps 755 mmHg 52%
    14:00 +27°C° 0 mm 3 mps 755 mmHg 53%
    15:00 +27°C° 0 mm 3 mps 755 mmHg 54%
    16:00 +26°C° 0 mm 4 mps 755 mmHg 60%
    17:00 +23°C° 0 mm 5 mps 755 mmHg 65%
    18:00 +22°C° 0 mm 5 mps 756 mmHg 70%
    19:00 +21°C° 0 mm 5 mps 756 mmHg 71%
    20:00 +19°C° 0 mm 5 mps 756 mmHg 72%
    21:00 +17°C° 0 mm 5 mps 757 mmHg 73%
    22:00 +16°C° 0 mm 5 mps 757 mmHg 74%
    23:00 +15°C° 0 mm 5 mps 757 mmHg 75%
    Show more